• Join FlightAware (Why Join?)
  • Login
  • US Flag GB Flag 
14:39 EDT


 

Airport Tracker/Info


-or-


 

Live Flight TrackerFlight Track Log ✈ SKW7367 ✈ 27-Sep-2013 ✈ KDTW - KAPN

Flight Track Log - Related Links

Times and Time Zones

All times are in EDT time to prevent confusion due to time zone crossing. See the SKW7367 flight status page for this flight to view local times or setup timezone preferences in your user account.

Time Position Orientation Groundspeed Altitude Reporting Facility
EDT Latitude Longitude Course Direction KTS MPH feet Rate Location/Type
16:12 42.2106 -83.3650 340° North 151 174 1,400  Level Cleveland Center
16:13 42.1589 -83.4336 225° Southwest 261 300 4,000 2,160 Climbing Cleveland Center
16:14 42.1181 -83.4867 224° Southwest 268 308 5,900 2,880 Climbing Cleveland Center
16:14 42.1025 -83.5128 231° Southwest 289 333 7,000 3,060 Climbing Cleveland Center
16:15 42.5272 -83.3752 North  Level Estimated
16:15 42.0814 -83.5875 249° West 286 329 9,100  Level Cleveland Center
16:15 42.0850 -83.6006 290° West 290 334 9,400 840 Climbing Cleveland Center
16:16 42.6321 -83.3825 North  Level Estimated
16:16 42.1169 -83.6861 297° West 309 356 10,000  Level Cleveland Center
16:16 42.1439 -83.6992 340° North 309 356 10,100 1,140 Climbing Cleveland Center
16:17 42.7370 -83.3898 340° North  Level Estimated
16:17 42.2006 -83.7131 350° North 310 357 11,200  Level Cleveland Center
16:17 42.2300 -83.7231 346° North 323 372 11,700 1,740 Climbing Cleveland Center
16:18 42.2914 -83.7175 North 342 394 13,000 1,380 Climbing Cleveland Center
16:18 42.3111 -83.7067 22° Northeast 333 383 13,000  Level Cleveland Center
16:19 42.3783 -83.6658 24° Northeast 338 389 13,000 420 Level Cleveland Center
16:20 42.4669 -83.6164 22° Northeast 340 391 13,800 960 Climbing Cleveland Center
16:21 42.5544 -83.5669 23° Northeast 338 389 15,000 540 Climbing Cleveland Center
16:22 42.6431 -83.5156 23° Northeast 343 395 15,000  Level Cleveland Center
16:23 42.7331 -83.4644 23° Northeast 347 399 15,000  Level Cleveland Center
16:24 42.8372 -83.4061 22° Northeast 339 390 15,000  Level Cleveland Center
16:25 42.9153 -83.3661 21° North 302 348 15,000  Level Cleveland Center
16:26 43.0006 -83.3678 359° North 306 352 15,000  Level Cleveland Center
16:27 43.0825 -83.3814 353° North 303 349 15,000  Level Cleveland Center
16:28 43.1419 -83.4681 313° West 311 358 15,000  Level Cleveland Center
16:29 43.2097 -83.5756 311° West 312 359 15,000  Level Cleveland Center
16:30 43.2678 -83.6600 313° West 305 351 15,000  Level Cleveland Center
16:31 43.3256 -83.7517 311° West 314 361 15,000  Level Cleveland Center
16:32 43.3836 -83.8411 312° West 314 361 15,000  Level Cleveland Center
16:34 43.4419 -83.9319 312° West 317 365 15,000  Level Cleveland Center
16:35 43.5019 -84.0272 311° West 314 361 15,000  Level Cleveland Center
16:36 43.5806 -84.0600 343° North 316 364 15,100  Climbing Cleveland Center
16:37 43.6822 -84.0258 14° North 314 361 15,000 -60 Descending Cleveland Center
16:38 43.7842 -83.9939 13° North 316 364 15,000  Level Minneapolis Center
16:39 43.8700 -83.9656 13° North 316 364 15,000  Level Minneapolis Center
16:40 43.9597 -83.9350 14° North 317 365 15,000  Level Minneapolis Center
16:41 44.0517 -83.9050 13° North 318 366 15,000  Level Minneapolis Center
16:42 44.1431 -83.8750 13° North 314 361 15,000  Level Minneapolis Center
16:43 44.2283 -83.8450 14° North 319 367 15,000  Level Minneapolis Center
16:44 44.3192 -83.8153 13° North 316 364 15,000  Level Minneapolis Center
16:45 44.4047 -83.7869 13° North 318 366 15,000  Level Minneapolis Center
16:46 44.4958 -83.7561 14° North 316 364 15,000 -420 Level Minneapolis Center
16:47 44.5811 -83.7275 13° North 318 366 14,200 -1,440 Descending Minneapolis Center
16:48 44.6700 -83.6975 13° North 310 357 12,100 -2,040 Descending Minneapolis Center
16:49 44.7486 -83.6708 14° North 297 342 10,000 -2,040 Descending Minneapolis Center
16:50 44.8336 -83.6417 14° North 294 338 7,900 -1,980 Descending Minneapolis Center
16:51 44.9083 -83.6164 13° North 286 329 6,000 -1,920 Descending Minneapolis Center
16:52 44.9886 -83.6028 North 278 320 4,000 -1,260 Descending Minneapolis Center
16:53 45.0550 -83.6267 346° North 250 288 3,500 -300 Descending Minneapolis Center
16:54 45.1231 -83.6492 347° North 231 266 3,500 -60 Level Minneapolis Center
16:55 45.1814 -83.6475 North 219 252 3,400 -480 Descending Minneapolis Center
16:56 45.1844 -83.5767 86° East 172 198 2,600 -780 Descending Minneapolis Center
16:58 45.1481 -83.5617 164° South 142 163 1,800 -720 Descending Minneapolis Center
16:59 45.1097 -83.5614 180° South 129 148 1,200 -480 Descending Minneapolis Center
17:00 45.0781 -83.5603 179° South 129 148 800 -420 Descending Minneapolis Center